Skip Page Navigation
NASA JPL Caltech
NASA Logo - Jet Propulsion Laboratory + View the NASA Portal
+ Near-Earth Object (NEO) Program
Search JPL
JPL Home Earth Solar System Stars & Galaxies Technology
JPL Solar System Dynamics
BODIES ORBITS EPHEMERIDES TOOLS PHYSICAL DATA DISCOVERY FAQ SITE MAP
JPL Small-Body Database Browser
Search: [ help ]  
143P/Kowal-Mrkos
Classification: Jupiter-family Comet          SPK-ID: 1000057
Ephemeris | Orbit Diagram | Orbital Elements | Physical Parameters | Close-Approach Data ]

[ hide orbit diagram ]
Orbit Diagram
Note: Make sure you have Java enabled on your browser to see the applet. This applet is provided as a 3D orbit visualization tool. The applet was implemented using 2-body methods, and hence should not be used for determining accurate long-term trajectories (over several years or decades) or planetary encounter circumstances. For accurate long-term ephemerides, please instead use our Horizons system.
Orbit Viewer

Additional Notes: the orbits shown in the applet are color coded. The planets are white lines, and the asteroid/comet is a blue line. The bright white line indicates the portion of the orbit that is above the ecliptic plane, and the darker portion is below the ecliptic plane. Likewise for the asteroid/comet orbit, the light blue indicates the portion above the ecliptic plane, and the dark blue the portion below the ecliptic plane.

Orbit Viewer applet originally written and kindly provided by Osamu Ajiki (AstroArts), and further modified by Ron Baalke (JPL).


Orbital Elements at Epoch 2454683.5 (2008-Aug-05.0) TDB
Reference: JPL 42 (heliocentric ecliptic J2000)
 Element Value Uncertainty (1-sigma)   Units 
e .4101582590256226 1.1147e-07  
a 4.303104057233405 8.2033e-08 AU
q 2.538150388712459 4.493e-07 AU
i 4.689802697092312 1.0053e-05 deg
node 245.38104720 0.00014831 deg
peri 320.7367086341629 0.00014582 deg
M 325.6457883480085 9.3198e-06 deg
tp 2454994.634869067948
(2009-Jun-12.13486907)
7.8917e-05 JED
period 3260.402363445541
8.93
9.3232e-05
2.553e-07
d
yr
n .1104158198497801 3.1574e-09 deg/d
Q 6.068057725754351 1.1568e-07 AU
  Orbit Determination Parameters
   # obs. used (total)      385  
   data-arc span      10375 days (28.41 yr)  
   first obs. used      1984-04-23  
   last obs. used      2012-09-18  
   planetary ephem.      DE405  
   SB-pert. ephem.      SB405-CPV-2  
   condition code      0  
   fit RMS      .56936  
   data source      ORB  
   producer      Otto Matic  
   solution date      2012-Sep-18 13:50:51  

Additional Information
 Earth MOID = 1.53532 AU 
 T_jup = 2.862 
[ show covariance matrix ]

Ephemeris | Orbit Diagram | Orbital Elements | Physical Parameters | Close-Approach Data ]

Physical Parameter Table
Parameter Symbol Value Units Sigma Reference Notes
comet total magnitude M1 11.6 mag 0.9 42 from 164 observations, assumed slope, autocmod 2.5b
comet total magnitude slope K1 10.   n/a 42 autocmod 2.5b
comet nuclear magnitude M2 14.6 mag 0.7 42 from 155 observations, autocmod 2.5b
comet nuclear magnitude slope K2 5.   n/a 42 autocmod 2.5b
comet nuclear phase coefficient PC 0.03   n/a 42 autocmod 2.5b

[ show close-approach data ]
Alternate Designations
 Perihelion 
Year
(est.)
 New-Style 
Desig
Roman
 Numeral 
Year/
 Letter 
 2000.5   143P/2000 ET90       
 1982.7   143P/1984 H1   1984 X   1984n 
Ephemeris | Orbit Diagram | Orbital Elements | Physical Parameters | Close-Approach Data ]
ABOUT SSD CREDITS/AWARDS PRIVACY/COPYRIGHT GLOSSARY LINKS
FirstGov 2013-May-19 13:29 UT
(server date/time)  
NASA Home Page
Site Manager:   Donald K. Yeomans
Webmaster  Alan B. Chamberlin